Weather in Gridino

Russia / Republic of Karelia     65°55′12″N   34°40′10″E
temp.,
°C
wind,
m/s
gust,
m/s
humid.,
%
clouds,
%
prec.,
mm/h
press.,
hPa
HPBL,
m
27 november, sat
sat2700:00−5ne788098 0.0 999620
03:00−5nne6780100 0.1 1001572
06:00−5nne567799 0.0 1003486
09:00−6n447541 0.0 1005476
12:00−6nnw447898 0.0 1008414
15:00−7nw4582100 0.0 1009312
18:00−7nw4581100 0.0 1010362
21:00−7nnw458336 0.0 1011321
28 november, sun
sun2800:00−8nnw348437 0.0 1011279
03:00−8nnw338647 0.0 1011271
06:00−8nnw238780 0.0 1011312
09:00−8n228560 0.0 1011287
12:00−6ese4581100 0.3 1011719
15:00−4e666696 0.5 1011814
18:00−5e556595 0.0 1012839
21:00−6ene5569100 0.1 1012724
29 november, mon
mon2900:00−7ne337671 0.0 1013532
03:00−8nne227842 0.1 1014411
06:00−9nnw118157 0.0 1015290
09:00−9wnw118441 0.0 1016181
12:00−9w118749 0.0 1017148
15:00−10w1187100 0.0 1017124
18:00−7ese2375100 0.0 1016465
21:00−5ese4570100 0.0 1015632
30 november, tue
tue3000:00−4e8963100 0.0 1013894
03:00−3ese101060100 0.1 10101320
06:00−4ese111359100 0.0 10071200
09:00−3e131559100 0.0 10041459
12:00−4e131564100 0.0 10001449
15:00−5ene131574100 0.1 9961221
18:00−4ene131570100 0.0 9921196
21:00−5ene121588100 0.2 9891094
1 december, wed
wed100:00−4ene131587100 1.4 9861261
03:00−4ene131686100 1.8 9841370
06:00−4ene131587100 0.7 9831297
09:00−4ene131685100 1.3 9841313
12:00−4ene121589100 0.6 9841239
15:00−4ene121492100 2.1 9851173
18:00−4ene121492100 2.3 9861154
21:00−3ene131591100 3.8 9871190